Preview of NWS' New Version of Forecast
This preview is not operational and should not be used for support decisions.
Latest weather observations around

Wichita - Wichita Dwight D. Eisenhower National Airport (KICT)

Using English Units (Switch to International System of Units)
Date/ Time (CDT) Wind (mph) Vis. (mi) Weather Sky Cond. Temp (°F) Rel. Humidity Wind Chill (°F) Heat Index (°F) Pressure Precip. (in)
Air Dwpt 6 hour Altimeter (inHg) Sea level (inHg) 1 hr 3 hr 6 hr
Max Min
Sep 20 15:06 SE 9 10 Mostly Cloudy SCT016 BKN033 BKN046 79 70     74%   82 29.91        
Sep 20 14:53 SE 13 10 Mostly Cloudy SCT016 BKN026 BKN032 77 70     79%   78 29.92 29.88      
Sep 20 13:53 SSE 10 10 Mostly Cloudy SCT010 BKN020 BKN035 77 71     82%   78 29.93 29.89 0    
Sep 20 13:10 SE 14 5 Fog/Mist SCT006 BKN015 OVC030 75 72     90%   76 29.95   0    
Sep 20 12:53 SSE 9 2 Light Drizzle and Fog/Mist BKN006 BKN012 OVC020 74 71     91%   75 29.96 29.92 0   0
Sep 20 11:53 SSE 9 2 Light Drizzle and Fog/Mist BKN006 OVC012 73 70     90%   74 29.98 29.94 0    
Sep 20 11:27 SSE 10 1.75 Light Drizzle and Fog/Mist BKN006 OVC012 72 70     93%   73 29.98   0    
Sep 20 11:01 SSE 11 2 Light Drizzle and Fog/Mist BKN008 OVC012 72 69     91%   73 29.98   0    
Sep 20 10:53 SSE 10 5 Light Drizzle and Fog/Mist BKN010 OVC014 73 69     87%   74 29.98 29.94 0    
Sep 20 09:53 SSE 10 10 Cloudy BKN010 OVC014 73 69     87%   74 29.98 29.94   0  
Sep 20 09:37 SE 9 10 Cloudy OVC008 73 69     87%   74 29.98        
Sep 20 08:53 SE 9 5 Fog/Mist FEW010 SCT015 BKN035 72 68     87%   73 29.98 29.94 0    
Sep 20 08:50 SE 9 5 Fog/Mist FEW010 SCT015 BKN035 72 68     88%   73 29.98   0    
Sep 20 08:43 SE 10 3 Light Drizzle and Fog/Mist FEW010 SCT015 BKN029 72 68     87%   73 29.98   0    
Sep 20 08:11 SE 9 6 Fog/Mist BKN020 OVC035 71 68     90%   72 29.98   0    
Sep 20 07:53 SE 10 10 Light Rain FEW015 SCT026 BKN037 BKN140 BKN200 71 67     87%   72 29.98 29.94 0    
Sep 20 06:53 SE 10 10 Mostly Cloudy BKN060 BKN200 72 67     84%   73 29.97 29.92      
Sep 20 05:53 SE 8 10 Mostly Cloudy FEW080 BKN200 72 66     82%   73 29.95 29.9      
Sep 20 04:53 SE 9 10 Mostly Cloudy FEW080 BKN200 73 66     79%   74 29.93 29.88      
Sep 20 03:53 SE 13 10 Mostly Cloudy FEW080 BKN200 73 66     79%   74 29.93 29.88      
Sep 20 02:53 SE 11 10 Mostly Cloudy SCT080 BKN200 74 66     76%   75 29.95 29.9      
Sep 20 01:53 SSE 10 10 Mostly Cloudy BKN080 BKN200 76 67     74%   77 29.97 29.92      
Sep 20 00:53 SE 10 10 Mostly Cloudy BKN200 76 67     74%   77 29.96 29.91      
Sep 19 23:53 SSE 9 10 Mostly Cloudy BKN200 77 67     71%   78 29.96 29.91      
Sep 19 22:53 SSE 13 10 Mostly Cloudy BKN200 77 68     74%   78 29.95 29.9      
Sep 19 21:53 SSE 7 10 Mostly Cloudy BKN200 79 68     69%   80 29.96 29.91      
Sep 19 20:53 SSE 7 10 Mostly Cloudy SCT140 BKN200 80 67     64%   82 29.94 29.9      
Sep 19 19:53 SSE 8 10 Mostly Cloudy SCT140 BKN200 81 67     62%   83 29.91 29.87      
Sep 19 18:53 SE 11 10 Partly Cloudy FEW050 SCT220 85 67     55%   88 29.92 29.87      
Sep 19 17:53 SSE 17 10 Partly Cloudy SCT048 SCT230 87 67     51%   90 29.92 29.87      
Sep 19 16:53 SE 18 10 Partly Cloudy SCT049 SCT200 89 67     48%   92 29.92 29.87      
Sep 19 15:53 SE 16 10 Partly Cloudy FEW044 SCT200 90 69     50%   95 29.94 29.89      
Sep 19 14:53 SE 15 10 Partly Cloudy FEW045 SCT200 86 66     51%   88 29.96 29.91      
Sep 19 13:53 SSE 16 10 Partly Cloudy SCT045 SCT200 90 68     49%   94 29.97 29.92      
Sep 19 12:53 SSE 15 10 Partly Cloudy SCT050 SCT200 90 67     47%   93 29.99 29.93      
Sep 19 11:53 S 14 10 Partly Cloudy FEW050 SCT200 89 69     52%   94 30 29.95      
Sep 19 10:53 S 10 10 Mostly Clear FEW200 86 69     57%   90 30 29.95      
Sep 19 09:53 S 8 10 Mostly Clear FEW200 81 70     69%   84 29.99 29.94      
Sep 19 08:53 S 7 10 Mostly Clear FEW200 76 69     79%   77 29.98 29.94      
Sep 19 07:53 S 3 10 Partly Cloudy SCT180 70 67     90%     29.98 29.93      
Sep 19 06:53 S 6 10 Partly Cloudy SCT180 71 67     87%   72 29.97 29.92      
Sep 19 05:53 SE 6 10 Clear CLR 72 67     84%   73 29.96 29.91      
Sep 19 04:53 SSE 5 10 Partly Cloudy SCT180 72 66     82%   73 29.96 29.91      
Sep 19 03:53 Calm 10 Clear CLR 73 67     81%   74 29.96 29.91      
Sep 19 02:53 SSE 9 10 Partly Cloudy SCT180 74 67     79%   75 29.95 29.9      
Sep 19 01:53 SSE 8 10 Partly Cloudy SCT180 75 67     76%   76 29.96 29.91      
Sep 19 00:53 SSE 9 10 Mostly Clear FEW150 76 67     74%   77 29.96 29.91      
Sep 18 23:53 SSE 9 10 Mostly Clear FEW150 77 67     71%   78 29.96 29.91      
Sep 18 22:53 SSE 11 10 Mostly Clear FEW150 79 67     67%   80 29.96 29.91      
Sep 18 21:53 SSE 10 10 Mostly Clear FEW150 80 67     64%   82 29.96 29.91      
Sep 18 20:53 SSE 11 10 Mostly Clear FEW200 81 67     62%   83 29.95 29.91      
Sep 18 19:53 SE 11 10 Partly Cloudy FEW150 SCT250 83 67     59%   86 29.93 29.89      
Sep 18 18:53 SSE 15 10 Mostly Clear FEW150 87 67     51%   90 29.92 29.88      
Sep 18 17:53 SSE 17 10 Mostly Clear FEW150 89 66     47%   92 29.91 29.86      
Sep 18 16:53 SSE 18 10 Mostly Clear FEW050 91 66     44%   94 29.91 29.86      
Sep 18 15:53 S 20 10 Mostly Clear and Windy FEW050 92 67     44%   95 29.91 29.86      
Sep 18 14:53 S 22 10 Mostly Clear and Windy FEW050 FEW200 92 66     43%   95 29.93 29.88      
Sep 18 13:53 S 20 10 Mostly Clear and Windy FEW050 FEW200 91 66     44%   94 29.95 29.89      
Sep 18 12:53 S 20 10 Mostly Clear and Windy FEW180 FEW220 91 66     44%   94 29.96 29.91      
Notice The following observation data may not be complete
Sep 18 10:53   10 Partly Cloudy FEW140 FEW180 SCT220          %              
Sep 18 08:53 S 10 10 Partly Cloudy FEW120 SCT180 SCT250 76 68     76%   77 29.97 29.93      
Sep 18 07:53 SSE 8 10 Mostly Clear FEW120 FEW250 72 67     84%   73 29.97 29.93      
Sep 18 06:53 SSE 7 10 Partly Cloudy FEW120 SCT250 71 66     84%   72 29.95 29.91      
Sep 18 05:53 SSE 7 10 Partly Cloudy SCT250 72 67     84%   73 29.95 29.9      
Sep 18 04:53 SSE 9 10 Partly Cloudy SCT250 73 67     81%   74 29.94 29.89      
Sep 18 03:53 SSE 9 10 Partly Cloudy SCT250 73 67     81%   74 29.93 29.88      
Sep 18 02:53 SSE 8 10 Partly Cloudy SCT250 74 68     82%   75 29.94 29.89      
Sep 18 01:53 SSE 10 10 Partly Cloudy SCT250 74 68     82%   75 29.95 29.9      
Sep 18 00:53 SSE 9 10 Partly Cloudy SCT250 75 68     79%   76 29.94 29.89      
Sep 17 23:53 SSE 9 10 Partly Cloudy SCT250 75 68     79%   76 29.94 29.89      
Sep 17 22:53 SSE 9 10 Partly Cloudy SCT250 76 67     74%   77 29.94 29.89      
Sep 17 21:53 SSE 11 10 Clear   79 67     67%   80 29.93 29.88      
Sep 17 20:53 SSE 11 10 Partly Cloudy SCT250 80 67     64%   82 29.93 29.88      
Sep 17 19:53 SSE 11 10 Partly Cloudy FEW150 SCT250 83 66     57%   85 29.91 29.86      
Sep 17 18:53 SSE 13 10 Mostly Cloudy BKN200 86 65     50%   88 29.91 29.87      
Sep 17 17:53 SSE 20 10 Partly Cloudy and Windy FEW060 SCT200 89 64     44%   90 29.92 29.87      
Sep 17 16:53 S 17 10 Partly Cloudy SCT060 SCT250 91 64     41%   93 29.93 29.88      
Sep 17 15:53 S 16 10 Partly Cloudy SCT060 SCT250 92 64     40%   94 29.95 29.9      
Sep 17 14:53 S 21 10 Partly Cloudy and Windy SCT055 SCT200 91 66     44%   94 29.96 29.91      
May 14 23:23   1.75 Thunderstorms and Heavy Rain and Fog/Mist SCT046 BKN075 BKN110 OVC150 68 66     93%     29.85   0    
May 14 17:53   10 Partly Cloudy FEW060 SCT085 SCT200 89 69     52%   94 29.74 29.69      
May 13 11:53 S 14 10 Clear   81 68     65%   84 29.92 29.88      
Jun 11 07:53   10 Clear CLR 74 66     76%   75 29.78 29.72      
Jun 10 12:53   10 Partly Cloudy SCT031 84 69     61%   88 29.76 29.71      
Jun 09 14:53 SSE 16 10 Partly Cloudy SCT050 84 62     48%   85 29.83 29.79      
Jun 09 11:53 SSE 14 10 Clear CLR 81 63     54%   82 29.88 29.85      
Jun 09 02:53 S 7 10 Partly Cloudy FEW070 SCT250 63 56     78%     29.89 29.85      
Jun 08 12:53 SSW 10 10 Partly Cloudy SCT200 SCT250 77 55     47%   77 30.02 29.99      
Jun 08 06:53 SE 3 10 Mostly Cloudy SCT200 BKN250 61 54     78%     30.06 30.02      
Jun 05 21:53 Calm 10 Mostly Clear FEW200 75 61     62%   75 29.9 29.86